Temp
-15 -15 -15 -15 -15 -15 -15 -15 -15 -16 -16 -16 -16 -16 -17 -17 -17 -17 -17 -17 -17 -17 -17 -16 -16 -16 -16 -16 -16 -15 -15 -15 -16 -16 -16 -16 -16 -16 -16 -16 -16 -16
-15 -15 -15 -15 -15 -15 -15 -15 -15 -16 -16 -16 -16 -17 -17 -17 -18 -18 -18 -18 -18 -18 -18 -17 -17 -16 -16 -16 -16 -16 -16 -16 -16 -15 -15 -15 -16 -16 -16 -16 -16 -16
-15 -15 -15 -15 -15 -15 -15 -15 -15 -16 -16 -16 -16 -17 -17 -17 -18 -18 -18 -18 -19 -18 -18 -18 -18 -17 -17 -16 -16 -16 -16 -16 -16 -16 -15 -15 -16 -16 -16 -16 -16 -16
-15 -15 -15 -15 -15 -15 -15 -16 -16 -16 -16 -16 -16 -16 -17 -17 -18 -18 -18 -19 -19 -19 -19 -19 -18 -18 -18 -17 -17 -17 -16 -16 -16 -16 -16 -15 -16 -16 -16 -16 -16 -16
-15 -15 -15 -15 -15 -16 -16 -16 -16 -16 -16 -16 -16 -17 -17 -17 -18 -18 -18 -19 -19 -19 -19 -19 -19 -18 -18 -18 -17 -17 -17 -17 -17 -16 -16 -16 -16 -16 -16 -16 -16 -16
-15 -16 -16 -16 -16 -16 -16 -16 -16 -16 -16 -16 -17 -17 -17 -17 -18 -18 -18 -18 -19 -19 -19 -19 -19 -19 -19 -18 -18 -18 -17 -17 -17 -17 -16 -16 -16 -16 -16 -16 -16 -16
-16 -16 -16 -16 -16 -16 -16 -16 -16 -16 -17 -17 -17 -17 -17 -17 -18 -18 -18 -18 -19 -19 -19 -19 -19 -19 -19 -19 -18 -18 -18 -17 -17 -17 -17 -16 -16 -16 -16 -16 -16 -16
-16 -16 -16 -16 -16 -16 -16 -16 -16 -17 -17 -17 -17 -17 -17 -17 -18 -18 -18 -18 -19 -19 -19 -19 -19 -19 -19 -19 -19 -19 -18 -18 -17 -17 -17 -17 -17 -16 -16 -16 -16 -15
-16 -16 -16 -16 -16 -17 -17 -17 -17 -17 -17 -17 -17 -17 -17 -18 -18 -18 -18 -18 -19 -19 -19 -19 -19 -19 -19 -19 -19 -19 -18 -18 -18 -18 -17 -17 -17 -17 -17 -17 -16 -16
-16 -16 -16 -17 -17 -17 -17 -17 -17 -17 -17 -17 -17 -17 -18 -18 -18 -18 -18 -19 -19 -19 -19 -19 -19 -20 -20 -19 -19 -19 -19 -18 -18 -18 -18 -18 -17 -17 -17 -16 -16 -16
-17 -17 -17 -17 -17 -17 -17 -17 -17 -17 -17 -17 -17 -17 -18 -18 -18 -18 -18 -18 -19 -19 -19 -19 -19 -20 -20 -20 -20 -19 -19 -19 -19 -18 -18 -18 -17 -17 -17 -17 -17 -17
-17 -17 -17 -17 -17 -17 -17 -17 -17 -17 -18 -18 -18 -18 -18 -18 -18 -18 -18 -18 -19 -19 -19 -19 -19 -20 -20 -20 -20 -20 -19 -19 -19 -19 -19 -18 -18 -18 -17 -17 -17 -17
-17 -17 -17 -17 -17 -17 -18 -18 -18 -18 -18 -18 -18 -18 -18 -18 -18 -18 -18 -18 -19 -19 -19 -19 -19 -19 -20 -20 -20 -20 -20 -20 -20 -19 -19 -19 -19 -18 -18 -17 -18 -18
-17 -17 -17 -17 -17 -18 -18 -18 -18 -18 -18 -18 -18 -18 -18 -18 -18 -18 -18 -18 -19 -19 -19 -19 -19 -20 -20 -20 -20 -20 -20 -20 -20 -20 -20 -19 -19 -19 -18 -18 -18 -18
-17 -18 -18 -18 -18 -18 -18 -18 -18 -18 -18 -18 -18 -18 -18 -18 -18 -18 -18 -19 -19 -19 -19 -19 -19 -20 -20 -20 -20 -20 -20 -20 -20 -20 -20 -20 -19 -19 -19 -18 -18 -18
-18 -18 -18 -18 -18 -18 -18 -18 -18 -18 -18 -18 -18 -18 -18 -18 -18 -18 -19 -19 -19 -19 -19 -19 -20 -20 -20 -20 -20 -20 -20 -20 -20 -20 -20 -20 -20 -19 -19 -19 -19 -19
-18 -18 -18 -18 -18 -18 -18 -18 -18 -18 -18 -18 -18 -18 -18 -18 -19 -19 -19 -19 -19 -19 -19 -20 -20 -20 -20 -20 -20 -20 -20 -20 -20 -20 -20 -20 -20 -20 -19 -19 -19 -19
-18 -18 -18 -18 -18 -18 -18 -18 -18 -18 -18 -18 -18 -18 -18 -19 -19 -19 -19 -19 -19 -19 -20 -20 -20 -20 -20 -20 -20 -20 -20 -20 -20 -21 -20 -20 -20 -20 -20 -19 -19 -19
-18 -18 -18 -18 -18 -18 -18 -18 -18 -18 -18 -18 -18 -18 -19 -19 -19 -19 -19 -19 -19 -20 -20 -20 -20 -20 -21 -21 -21 -21 -20 -20 -21 -21 -21 -21 -20 -20 -20 -20 -19 -19
-18 -18 -18 -18 -18 -18 -18 -18 -18 -18 -19 -19 -19 -19 -19 -19 -19 -19 -20 -20 -20 -20 -20 -20 -21 -21 -21 -21 -21 -21 -21 -21 -21 -21 -21 -21 -20 -20 -20 -20 -19 -19
-18 -18 -18 -18 -18 -18 -18 -18 -18 -19 -19 -19 -19 -19 -20 -20 -20 -20 -20 -20 -20 -21 -21 -21 -21 -21 -21 -21 -21 -21 -21 -21 -21 -21 -21 -21 -21 -20 -20 -20 -20 -20
-18 -18 -18 -18 -18 -18 -18 -18 -19 -19 -19 -19 -20 -20 -20 -20 -20 -21 -21 -21 -21 -21 -21 -21 -21 -22 -21 -21 -21 -21 -21 -21 -21 -21 -21 -21 -21 -21 -21 -20 -20 -20
-18 -18 -18 -18 -18 -18 -19 -19 -19 -19 -19 -20 -20 -20 -21 -21 -21 -21 -21 -22 -22 -22 -22 -22 -22 -22 -22 -22 -22 -21 -21 -21 -21 -21 -21 -21 -21 -21 -21 -21 -20 -20
-18 -18 -18 -18 -18 -19 -19 -19 -19 -20 -20 -20 -20 -21 -21 -21 -22 -22 -22 -22 -22 -22 -22 -22 -22 -22 -22 -22 -22 -22 -22 -22 -22 -21 -21 -21 -21 -21 -21 -21 -21 -21
-18 -18 -18 -19 -19 -19 -19 -19 -20 -20 -20 -21 -21 -21 -22 -22 -22 -23 -23 -23 -23 -23 -23 -23 -23 -23 -22 -22 -22 -22 -22 -22 -22 -22 -22 -22 -21 -21 -21 -21 -21 -21
-19 -19 -19 -19 -19 -19 -19 -20 -20 -21 -21 -21 -22 -22 -22 -23 -23 -23 -23 -23 -23 -23 -23 -23 -23 -23 -23 -23 -23 -23 -23 -22 -22 -22 -22 -22 -22 -22 -21 -21 -21 -21
Height
5765 5763 5761 5759 5756 5754 5752 5749 5747 5744 5741 5738 5735 5733 5731 5729 5727 5726 5724 5723 5721 5721 5722 5723 5724 5725 5726 5727 5728 5729 5730 5731 5733 5733 5734 5735 5736 5736 5738 5739 5740 5741
5763 5761 5759 5756 5754 5752 5749 5747 5744 5742 5739 5736 5733 5730 5727 5725 5723 5721 5720 5719 5717 5715 5715 5716 5717 5718 5719 5720 5721 5723 5724 5725 5726 5727 5727 5729 5729 5730 5732 5733 5734 5735
5761 5758 5756 5754 5752 5749 5747 5744 5742 5739 5736 5733 5730 5727 5724 5722 5719 5717 5715 5714 5713 5712 5710 5709 5710 5712 5713 5713 5714 5716 5717 5718 5719 5720 5721 5722 5722 5723 5725 5727 5728 5729
5758 5756 5754 5751 5749 5747 5744 5742 5739 5736 5734 5731 5728 5725 5722 5719 5716 5713 5711 5710 5708 5708 5706 5705 5704 5705 5706 5707 5709 5710 5710 5710 5711 5712 5714 5715 5716 5718 5719 5721 5723 5724
5756 5753 5751 5749 5746 5744 5741 5739 5736 5734 5731 5728 5725 5722 5719 5716 5713 5710 5708 5705 5704 5702 5702 5701 5699 5699 5699 5701 5703 5703 5702 5702 5704 5705 5707 5710 5710 5712 5713 5715 5717 5718
5753 5751 5748 5746 5743 5741 5738 5736 5733 5731 5728 5726 5722 5719 5716 5713 5710 5707 5705 5702 5700 5698 5697 5696 5695 5694 5693 5694 5695 5695 5694 5696 5697 5699 5702 5704 5704 5705 5707 5709 5711 5712
5751 5748 5746 5743 5740 5738 5735 5733 5730 5728 5725 5723 5720 5717 5714 5711 5708 5705 5702 5699 5696 5694 5692 5691 5690 5689 5688 5688 5688 5688 5689 5690 5691 5693 5695 5697 5698 5698 5699 5702 5705 5706
5748 5746 5743 5741 5738 5735 5732 5729 5727 5724 5722 5719 5717 5714 5711 5708 5705 5702 5699 5696 5693 5691 5689 5687 5685 5684 5683 5682 5682 5682 5683 5684 5685 5686 5688 5689 5690 5691 5691 5693 5697 5699
5745 5742 5740 5737 5735 5732 5729 5727 5724 5721 5718 5716 5713 5711 5708 5705 5702 5699 5696 5693 5690 5688 5685 5683 5681 5679 5678 5677 5677 5677 5678 5679 5679 5679 5680 5682 5683 5684 5684 5686 5689 5691
5741 5739 5736 5734 5732 5729 5727 5724 5721 5718 5715 5712 5710 5707 5705 5702 5699 5696 5693 5690 5687 5684 5682 5680 5677 5675 5673 5672 5672 5672 5673 5672 5672 5672 5672 5673 5675 5677 5679 5680 5681 5683
5738 5735 5733 5731 5728 5726 5723 5721 5718 5715 5712 5709 5706 5704 5701 5698 5695 5693 5690 5687 5684 5681 5678 5676 5673 5671 5669 5668 5667 5667 5666 5664 5663 5664 5665 5666 5668 5670 5671 5672 5674 5676
5734 5732 5729 5727 5725 5722 5720 5717 5715 5712 5709 5706 5703 5700 5697 5694 5692 5689 5686 5683 5680 5677 5674 5671 5669 5667 5665 5663 5662 5661 5660 5658 5657 5657 5659 5660 5661 5663 5664 5666 5668 5669
5730 5728 5726 5723 5721 5718 5716 5713 5711 5708 5705 5703 5700 5697 5694 5691 5688 5685 5682 5679 5676 5673 5670 5667 5665 5663 5661 5659 5657 5656 5655 5653 5653 5653 5653 5653 5653 5655 5657 5659 5660 5662
5726 5724 5721 5719 5717 5714 5712 5709 5707 5704 5701 5699 5696 5693 5690 5687 5684 5681 5678 5675 5672 5669 5665 5662 5660 5658 5656 5654 5652 5651 5650 5649 5648 5648 5647 5647 5647 5648 5650 5652 5653 5655
5722 5719 5717 5714 5712 5710 5707 5705 5702 5700 5697 5694 5692 5689 5686 5683 5680 5677 5673 5671 5667 5664 5661 5658 5655 5653 5651 5649 5648 5646 5645 5644 5643 5643 5642 5642 5642 5642 5644 5645 5647 5648
5717 5715 5712 5710 5708 5705 5703 5700 5698 5695 5693 5690 5687 5685 5682 5679 5675 5672 5669 5666 5662 5659 5656 5653 5650 5648 5645 5644 5642 5641 5640 5639 5638 5637 5637 5637 5637 5637 5637 5639 5641 5642
5713 5711 5709 5706 5704 5701 5699 5696 5694 5691 5689 5686 5683 5680 5677 5674 5670 5667 5663 5660 5657 5654 5651 5647 5645 5642 5640 5638 5637 5635 5635 5634 5633 5632 5631 5631 5631 5631 5631 5633 5635 5636
5710 5707 5705 5702 5700 5697 5695 5692 5690 5687 5685 5682 5679 5675 5672 5668 5665 5661 5658 5654 5651 5648 5645 5642 5639 5637 5635 5633 5631 5629 5628 5627 5626 5626 5625 5624 5625 5625 5625 5627 5629 5631
5706 5704 5701 5699 5696 5694 5691 5689 5686 5683 5680 5677 5673 5670 5666 5662 5659 5655 5652 5648 5645 5642 5639 5636 5633 5631 5629 5627 5625 5623 5622 5621 5620 5620 5619 5618 5618 5619 5619 5620 5622 5624
5703 5701 5698 5696 5694 5691 5688 5685 5682 5678 5675 5671 5667 5663 5659 5655 5652 5648 5645 5641 5638 5635 5632 5629 5626 5624 5623 5621 5619 5617 5615 5615 5614 5613 5613 5613 5613 5613 5614 5614 5616 5618
5701 5699 5696 5693 5690 5687 5684 5681 5677 5673 5669 5664 5660 5656 5652 5648 5644 5641 5637 5634 5630 5627 5625 5622 5620 5618 5617 5614 5612 5610 5609 5609 5608 5607 5607 5608 5608 5608 5608 5608 5610 5612
5699 5696 5694 5690 5687 5683 5679 5675 5671 5667 5662 5658 5653 5648 5644 5640 5636 5633 5629 5626 5623 5620 5617 5615 5613 5611 5610 5608 5605 5604 5604 5603 5603 5602 5601 5602 5602 5603 5603 5603 5604 5606
5696 5693 5690 5686 5683 5678 5674 5670 5665 5660 5655 5651 5646 5641 5636 5632 5628 5625 5621 5618 5615 5612 5610 5608 5606 5604 5603 5601 5599 5598 5598 5597 5596 5596 5596 5596 5596 5597 5597 5597 5597 5599
5693 5689 5686 5682 5678 5673 5668 5664 5659 5653 5648 5643 5638 5633 5629 5624 5620 5617 5614 5611 5608 5606 5603 5601 5600 5598 5596 5595 5593 5592 5592 5591 5590 5590 5590 5590 5590 5591 5591 5590 5591 5593
5689 5685 5681 5677 5673 5668 5663 5657 5652 5646 5641 5635 5630 5626 5621 5617 5613 5610 5608 5605 5602 5600 5597 5595 5594 5592 5590 5588 5587 5586 5586 5585 5585 5584 5584 5584 5585 5585 5585 5585 5586 5587
5686 5681 5677 5672 5667 5662 5656 5650 5645 5639 5634 5629 5624 5619 5615 5611 5608 5605 5602 5600 5597 5595 5593 5591 5589 5587 5585 5583 5582 5581 5580 5580 5579 5579 5579 5579 5579 5579 5579 5580 5581 5581
Wind_Speed
30 30 31 31 32 33 33 34 34 34 34 34 34 35 35 34 34 33 34 38 42 44 44 45 45 45 45 46 47 46 46 45 43 41 42 41 41 40 39 39 40 39
29 29 30 31 31 32 33 33 34 34 35 35 35 35 35 35 35 34 33 33 35 39 42 44 45 45 45 46 46 47 48 48 46 44 43 42 43 43 41 40 41 40
29 29 30 30 30 31 32 32 33 34 34 35 35 35 35 34 35 35 34 33 33 34 37 40 42 44 44 45 46 46 47 48 48 47 46 45 45 44 42 41 40 39
28 29 29 29 29 30 31 31 32 33 33 34 35 35 35 34 34 35 35 35 34 33 34 35 38 40 42 43 44 45 46 48 48 49 49 47 45 44 43 43 43 40
28 28 28 28 28 28 29 30 30 31 32 33 34 35 35 35 35 35 35 35 35 34 34 33 34 35 38 41 42 42 43 44 46 50 51 49 46 43 41 43 46 46
28 28 27 27 27 27 28 29 29 29 30 31 33 34 35 35 35 35 35 35 35 34 34 34 34 33 34 38 40 41 43 43 43 46 48 49 49 48 44 42 44 47
28 28 27 27 27 27 27 28 28 29 29 29 30 32 34 34 35 35 35 35 35 34 34 35 35 33 32 34 36 40 43 44 44 44 45 46 47 49 48 46 44 45
29 28 28 27 27 27 27 27 27 28 28 28 29 30 32 33 34 35 35 35 35 35 34 34 35 34 33 32 33 36 39 41 44 45 46 45 44 44 45 45 44 43
29 29 28 28 28 27 27 27 27 27 28 29 29 29 30 31 33 34 35 36 36 35 34 34 34 34 34 32 31 32 34 37 41 45 47 46 45 44 41 40 43 45
31 30 29 29 29 28 27 27 27 27 28 29 29 29 30 31 32 33 34 35 36 36 35 34 33 34 34 33 31 29 31 34 39 42 44 45 45 46 42 37 37 42
32 31 31 31 31 30 29 28 28 28 28 28 29 30 30 31 32 33 34 35 35 36 36 35 33 33 33 33 32 30 31 34 37 39 41 42 44 46 48 43 38 37
33 32 32 32 32 32 31 30 29 29 29 29 30 30 31 32 32 33 34 35 35 35 36 36 35 33 33 33 32 31 31 34 36 37 37 40 42 45 49 51 48 42
34 34 33 33 33 33 32 32 31 31 30 30 30 31 32 32 33 34 35 36 36 36 37 37 36 34 32 33 33 33 32 33 35 36 36 38 40 43 45 49 51 49
35 34 35 34 34 33 33 33 32 32 32 32 32 32 33 33 34 35 36 37 37 38 38 38 37 36 34 33 33 34 34 33 34 35 37 38 38 40 43 45 49 51
35 35 35 35 35 35 35 34 34 34 33 34 34 34 34 35 36 37 38 38 38 39 40 40 39 37 36 34 33 33 34 34 33 34 36 38 39 40 42 44 45 48
35 35 35 35 36 36 35 35 35 35 35 35 36 36 36 37 38 39 39 40 40 40 41 41 41 39 37 36 34 33 34 34 34 34 35 36 38 40 42 43 43 43
34 34 34 35 35 35 36 36 37 37 37 37 37 38 38 39 40 41 41 42 42 42 42 43 42 41 39 37 36 35 34 34 34 34 35 35 35 38 41 42 42 42
33 34 34 34 35 35 36 37 37 37 37 38 39 40 41 42 43 43 44 44 44 44 44 44 44 42 39 38 37 36 34 34 34 34 35 35 34 35 39 40 40 40
33 33 34 34 35 35 36 37 37 38 39 41 42 44 45 45 46 46 46 46 46 46 45 45 45 42 40 38 37 36 35 34 34 34 34 35 34 34 37 40 39 38
33 33 33 34 34 35 37 39 41 42 44 45 46 47 48 48 48 48 48 48 48 48 47 46 45 42 39 38 37 36 36 35 34 34 34 34 35 34 35 39 40 38
33 33 34 35 37 39 42 43 45 46 47 48 49 49 49 50 50 50 50 50 49 49 48 46 45 42 38 37 37 37 36 35 34 34 34 34 34 34 34 37 39 38
33 34 36 39 41 44 46 47 48 49 49 50 50 50 50 50 50 51 51 51 50 49 47 45 44 41 37 35 37 37 36 35 34 34 34 33 33 33 33 35 38 38
36 38 40 43 45 47 49 50 51 52 52 51 51 50 50 50 50 50 50 50 49 47 45 43 41 38 35 35 36 37 35 35 34 34 33 33 33 32 32 33 36 38
39 42 44 46 49 51 52 53 54 54 53 52 51 50 50 50 50 50 49 48 46 44 42 40 38 36 35 35 36 36 35 34 33 33 33 32 32 32 32 33 35 38
42 44 47 49 52 53 55 55 55 54 52 51 50 49 49 49 49 48 46 44 41 39 37 36 35 34 34 35 36 35 34 33 33 32 32 32 32 32 33 33 35 37
44 47 50 52 54 56 57 57 55 53 51 49 49 48 47 46 44 42 39 36 34 32 32 32 32 32 33 34 35 34 33 32 32 32 31 31 31 32 33 33 34 36
Wind_Direction
330 331 332 332 332 332 332 333 333 332 330 327 322 318 316 315 312 305 295 286 280 276 271 268 266 266 266 264 262 259 257 256 256 258 259 258 257 255 254 253 251 247
326 328 329 331 331 331 332 332 333 333 333 331 328 324 321 319 317 314 308 300 292 285 279 272 267 265 264 264 263 261 259 257 256 257 257 258 256 253 253 254 251 246
323 324 326 328 330 331 331 331 332 333 333 333 332 329 325 322 319 317 313 307 301 296 290 282 273 267 264 263 263 263 262 260 258 256 256 258 256 250 249 253 252 249
319 320 323 325 327 329 329 330 331 332 333 334 333 332 329 325 321 319 316 311 305 301 298 293 283 274 267 263 262 263 263 262 261 258 256 257 256 251 250 251 251 251
315 316 319 321 324 326 327 328 329 331 333 333 333 333 332 329 324 320 318 315 310 304 300 299 293 284 273 265 261 261 262 261 260 259 258 257 257 254 252 250 250 251
311 313 314 317 319 322 324 326 327 329 331 332 333 333 333 331 327 323 319 316 314 310 304 301 299 293 281 269 262 258 258 259 259 258 258 257 257 257 255 252 250 252
310 310 311 312 314 317 320 322 324 326 328 330 330 331 332 331 328 325 321 317 315 313 309 305 302 300 291 277 266 259 257 258 259 258 257 256 257 258 258 255 254 254
308 308 307 308 309 312 315 318 321 323 324 326 328 329 330 330 328 325 322 318 315 313 311 308 304 302 298 288 274 265 259 258 259 259 257 256 254 255 257 255 254 253
308 307 306 305 306 308 310 312 315 318 320 322 324 326 327 327 326 325 323 320 316 314 311 309 306 303 300 295 284 272 263 260 262 261 258 255 252 250 253 255 253 250
307 307 306 305 304 304 305 307 310 313 314 317 320 322 324 325 325 324 323 320 317 314 312 309 306 303 300 298 292 279 264 259 260 259 256 254 251 248 248 251 253 253
307 307 306 305 304 303 303 304 305 307 309 311 314 317 320 322 323 323 322 320 317 314 312 310 306 303 299 298 296 286 270 260 259 259 255 253 251 248 246 248 251 255
309 308 306 305 304 302 302 302 302 304 305 307 309 312 315 318 320 320 320 319 317 314 311 309 306 303 300 296 294 289 279 269 263 259 256 253 251 248 247 249 250 252
309 309 307 306 304 303 302 301 301 302 303 304 305 308 311 313 316 318 317 317 316 314 311 308 306 303 300 295 292 289 285 278 270 263 257 254 251 248 247 248 249 250
310 310 308 307 306 304 303 302 301 301 302 303 304 305 307 309 312 314 315 314 313 312 310 308 306 304 300 296 292 289 287 284 279 270 264 259 254 249 247 248 249 250
311 310 310 309 308 306 305 305 304 303 303 304 304 304 305 307 309 311 312 312 310 309 307 306 305 303 300 297 293 289 287 285 282 277 270 264 259 253 249 249 251 251
312 312 311 311 310 308 308 307 307 306 305 305 305 305 306 306 307 308 308 308 307 306 305 304 303 302 300 298 294 289 286 284 283 280 275 269 264 259 254 251 252 252
314 314 313 312 311 311 310 310 309 308 307 307 306 307 307 307 306 306 305 305 304 303 302 301 301 301 300 298 295 291 287 283 282 280 278 274 269 263 257 253 252 252
317 316 315 315 314 314 314 313 312 311 310 309 309 309 308 306 305 304 303 302 301 300 299 299 299 299 299 297 295 292 288 283 280 279 278 276 271 266 260 255 252 251
320 320 320 320 319 319 318 317 316 315 313 312 311 310 308 306 304 303 301 300 299 299 298 298 298 299 298 296 294 290 286 283 279 277 276 275 272 267 261 257 253 249
325 325 326 325 324 323 323 321 320 318 315 314 312 310 307 305 303 302 300 299 298 297 297 297 298 298 297 295 292 288 285 281 279 276 274 273 272 268 261 257 254 249
329 330 330 330 328 327 326 324 322 320 317 315 313 310 307 305 303 301 299 298 297 296 297 298 297 298 297 293 289 286 284 281 278 276 273 271 271 269 264 257 253 250
332 332 332 332 330 329 329 327 325 322 320 316 313 310 307 304 302 300 299 298 298 298 299 299 299 298 296 290 286 284 284 282 278 275 273 270 269 269 267 260 254 250
333 333 333 334 333 333 332 330 327 324 321 317 313 310 307 304 302 301 301 301 301 302 301 300 299 298 293 287 284 283 283 282 279 274 271 269 267 266 265 261 255 249
335 335 336 336 336 335 334 332 329 326 321 317 313 310 307 305 304 303 304 305 305 305 304 302 299 296 291 287 284 283 282 280 278 275 271 267 265 264 263 260 254 249
336 337 338 337 337 336 335 334 331 327 323 318 314 311 309 308 307 308 309 310 310 308 306 303 301 297 292 288 285 283 282 280 278 276 272 267 263 261 261 261 256 251
337 338 339 339 339 339 338 336 334 330 325 321 317 315 313 313 314 316 317 316 315 313 310 307 304 300 296 291 288 286 285 282 278 276 272 268 264 260 259 259 256 252